Temp_Advection
nan nan nan nan nan nan nan nan nan nan nan nan nan nan nan nan nan nan nan nan nan nan nan nan nan nan nan nan nan nan nan nan nan nan nan nan nan nan nan nan nan nan nan nan nan nan nan nan nan nan nan nan nan nan nan nan nan nan nan nan nan nan nan nan nan nan nan nan nan
nan 1 2 2 2 1 1 1 0 0 0 0 0 0 0 0 0 0 -0 -0 -0 -0 -0 -0 -0 -0 -0 -0 -0 -0 -0 -0 -0 -0 -0 -0 -0 -0 -0 -0 -0 -0 -0 -0 -0 0 0 0 1 1 0 0 0 0 0 0 -0 -0 -0 0 0 0 0 -0 -1 -1 -0 -0 nan
nan 2 2 2 2 1 1 1 0 0 0 0 0 0 0 0 -0 -0 -0 -0 -0 -0 -0 -0 -0 -0 -0 -0 -0 -0 -0 -0 -0 -0 -0 -0 -0 0 0 -0 -0 -0 -0 -0 -0 -0 -0 0 0 1 0 0 0 0 -0 1 1 1 0 0 1 1 0 -0 -0 -0 -0 -0 nan
nan 2 2 2 2 1 1 1 0 0 0 0 0 0 0 0 -0 -0 -0 -0 -0 -0 -0 -0 -0 -0 -0 0 0 0 0 -0 -0 -0 -0 -0 -0 0 0 0 -0 0 -0 -0 -0 -0 0 0 0 0 0 0 -0 -0 -1 -0 1 1 1 0 1 1 0 0 0 0 0 0 nan
nan 2 2 2 1 1 1 0 0 0 0 1 0 0 0 0 0 -0 -0 -0 -0 -0 -0 -0 -0 -0 -0 -0 0 0 0 0 -0 -0 -0 -0 -0 -0 0 0 0 0 0 0 -0 -0 0 0 0 0 -0 -0 -0 -1 -1 -1 -0 0 0 0 0 0 0 0 0 0 -0 0 nan
nan 2 2 2 1 1 1 0 0 0 0 0 0 0 0 0 -0 -0 -0 -0 -0 -0 -0 0 0 -0 -0 -0 0 -0 -0 0 0 -0 -0 -0 -0 -0 -0 0 0 0 0 -0 0 0 -0 -0 0 0 0 -1 -1 -1 -1 -0 -1 -1 -0 -0 -0 -0 -0 -0 0 0 -0 -0 nan
nan 2 2 1 1 1 0 0 0 0 0 0 0 0 0 0 -0 -0 -0 -0 -0 -0 0 0 0 0 0 -0 0 0 0 0 0 0 -0 -0 0 0 0 0 0 0 0 0 0 1 1 1 0 -0 0 0 -1 -1 -0 -0 -0 -0 -1 -0 -0 0 -0 -0 -0 -0 -0 -0 nan
nan 2 1 1 1 0 0 0 0 0 0 0 0 0 0 0 -0 -0 -0 -0 -0 0 0 0 0 0 0 0 0 0 0 0 0 0 0 -0 -0 0 0 0 0 0 1 1 0 1 2 2 1 0 0 1 0 0 0 0 0 0 -0 -0 -0 0 -0 -0 -0 -0 -0 -0 nan
nan 1 1 1 0 0 0 0 0 0 0 0 0 0 0 -0 -0 -0 0 0 0 0 0 0 0 0 0 0 0 0 -0 -0 -0 0 0 0 -0 -0 0 0 0 0 1 1 1 1 2 2 2 1 1 1 1 0 1 1 1 0 0 0 -0 -0 0 0 -0 0 -0 -0 nan
nan 1 1 0 0 0 0 0 0 0 0 0 0 0 -0 -0 -0 0 0 0 0 0 0 0 0 0 0 0 0 0 0 -0 -0 -0 -0 -0 -0 -0 -0 0 0 -0 0 1 1 2 2 2 1 1 1 1 0 0 1 1 1 0 0 0 0 -0 -0 0 0 0 0 0 nan
nan 1 0 0 0 0 0 0 0 0 0 0 0 -0 -0 -0 -0 0 0 0 0 0 0 0 0 0 0 0 0 0 0 0 -0 -0 -0 -0 -0 0 -0 0 0 0 0 0 1 2 2 1 0 0 0 1 1 0 0 1 1 0 0 0 0 0 -0 -0 -0 -0 -0 0 nan
nan 0 0 0 0 0 0 0 0 0 0 0 -0 -0 -0 0 0 0 0 0 0 0 0 0 0 0 0 0 0 0 0 0 0 -0 -0 -0 -0 0 -0 -0 0 0 0 1 1 1 1 1 0 -0 -0 1 1 0 0 0 1 1 0 -0 0 0 0 -0 -0 -0 -0 -0 nan
nan 0 0 0 0 1 1 0 0 0 0 0 -0 -0 -0 -0 0 0 0 0 0 0 0 0 0 0 0 0 0 -0 -0 -0 -0 0 -0 -0 -0 -0 -0 0 0 0 0 1 1 1 1 1 0 -0 -0 -0 1 1 1 0 0 0 0 0 0 0 -0 -0 -0 -0 -0 -0 nan
nan 0 0 0 0 1 1 1 0 0 -0 -0 -0 -0 -0 0 0 0 0 0 0 0 0 0 0 -0 -0 -0 0 0 -0 -0 -0 -0 -0 -0 -0 -0 -0 0 0 0 0 1 1 1 1 0 1 1 0 -0 0 0 1 1 0 0 0 0 0 0 0 -0 -0 -0 -0 -0 nan
nan 0 0 1 1 1 1 0 0 -0 -0 -0 -0 -0 -0 -0 0 0 0 0 0 0 0 0 0 0 0 -0 -0 -0 0 -0 -0 -0 -1 -1 -1 -1 -1 -0 0 1 1 1 1 1 1 0 0 1 1 0 -0 0 0 1 1 0 0 0 0 -0 -0 -0 0 0 0 0 nan
nan 1 1 1 1 1 0 0 -0 -0 -0 -0 -0 -0 -0 0 -0 0 0 0 0 0 0 0 0 0 0 0 -0 -0 0 0 -0 -0 -0 -1 -1 -0 -0 -0 0 1 1 1 1 1 1 1 1 0 0 0 0 0 0 0 0 0 0 0 0 0 -0 -0 -0 0 0 0 nan
nan 1 1 1 1 0 0 -0 -0 -0 -0 -0 -0 0 0 0 0 0 0 0 0 0 0 0 0 0 0 1 1 0 0 0 0 0 0 0 0 0 0 0 1 1 1 1 1 1 1 1 1 1 0 0 0 0 0 0 0 0 0 0 0 0 0 0 -0 0 -0 0 nan
nan 1 1 1 0 0 0 -0 -0 -0 -0 -0 0 0 0 0 0 0 0 0 0 0 0 0 0 0 0 0 1 1 1 0 0 1 1 0 0 0 0 0 1 1 1 1 1 0 0 0 1 1 1 0 0 0 0 0 0 0 0 0 0 0 0 0 -0 -0 0 0 nan
nan 1 1 0 0 -0 -0 -0 -0 -0 0 0 0 0 0 0 0 0 0 0 0 0 0 0 0 0 0 0 0 1 1 1 0 0 0 0 0 0 0 0 1 1 1 1 1 0 0 0 1 1 1 1 0 0 0 0 0 0 0 0 0 0 0 0 0 -0 -0 -0 nan
nan 1 0 0 0 -0 -0 -0 -0 -0 0 0 0 0 0 0 0 0 0 0 0 0 0 -0 -0 0 0 0 0 0 1 1 1 0 0 1 1 0 -0 0 1 1 1 1 0 0 1 1 1 1 1 0 0 0 0 0 0 0 0 -0 0 0 0 0 0 0 -0 -0 nan
nan 0 0 -0 -0 -0 -0 -0 -0 0 0 0 0 0 0 0 0 0 0 0 0 0 0 0 0 0 0 0 0 -0 1 1 1 0 0 1 1 1 1 0 0 1 1 1 1 1 1 1 1 1 1 0 0 0 0 0 0 0 0 0 -0 -0 -0 -0 -0 0 0 -0 nan
nan 0 0 -0 -0 -0 -0 0 0 0 0 0 0 0 0 0 0 0 0 0 0 0 0 0 0 0 0 0 0 -0 0 1 1 1 1 0 1 1 1 1 -0 -0 0 1 1 1 1 1 1 1 0 0 0 1 1 0 0 0 0 0 -0 -0 -0 -0 -0 -0 -0 -0 nan
nan 0 -0 -0 -0 -0 -0 0 0 0 0 0 0 0 0 0 0 0 0 0 0 0 0 0 1 1 1 1 1 -0 -0 -0 -0 0 1 0 -0 0 1 1 1 -0 -0 0 0 1 1 1 1 1 0 0 0 0 0 0 0 -0 -0 0 -0 -0 -0 -0 -0 -0 -0 -0 nan
nan -0 -0 -0 -0 -0 0 0 0 0 0 0 0 0 0 0 0 0 0 0 0 0 0 1 0 0 0 0 1 1 -0 -1 -1 -1 0 1 0 -0 1 1 1 1 0 -0 1 1 1 1 1 1 0 0 0 -0 -0 -0 -0 -0 -0 -0 -0 -0 -0 -0 -0 -0 -0 -0 nan
nan -0 -0 -0 -0 0 0 0 0 0 0 0 0 0 0 0 0 0 0 0 0 0 0 0 0 0 -0 -0 0 1 1 -0 -1 -1 -1 0 1 1 1 1 1 1 0 1 1 1 2 1 1 0 0 -0 -0 -0 -0 -0 -0 -0 -0 -0 -0 -0 -0 -0 -0 -0 -0 -0 nan
nan -0 -0 0 0 0 0 0 0 0 0 0 0 0 0 0 0 0 -0 0 0 0 0 0 0 -0 0 -0 -1 0 1 1 0 -0 -1 -0 0 1 1 1 1 1 1 1 1 1 1 2 1 0 -0 -0 -0 -0 -0 -0 -0 -0 -0 -0 -0 -0 -0 -0 -0 -0 -0 -0 nan
nan -0 0 0 0 0 0 0 0 0 0 0 0 0 0 0 -0 0 -0 0 0 0 0 0 0 0 0 0 0 0 0 1 1 1 0 -0 -0 0 1 1 1 1 1 1 1 2 2 1 0 -0 -0 -0 -0 -0 -0 -0 -0 -0 -0 -1 -0 -0 -0 -0 -0 -0 -0 -0 nan
nan 0 0 0 0 0 0 0 0 0 0 0 0 0 0 0 0 0 0 0 0 1 0 0 1 0 0 1 1 1 1 1 1 1 1 0 1 0 0 0 1 1 1 1 1 1 2 1 0 -0 -1 -0 -0 0 -0 -0 -0 -0 -0 -0 -0 -0 -0 -0 -0 -0 -0 -0 nan
nan 0 0 0 0 0 0 0 0 0 0 0 0 0 0 0 0 0 0 0 1 1 1 1 1 1 1 1 1 1 1 1 1 1 1 0 0 1 1 1 1 1 1 1 1 1 1 1 1 0 -1 -1 -0 -0 -0 -1 -1 -0 -0 -0 -1 -0 -0 -0 -0 -0 -0 -0 nan
nan 0 0 0 0 0 0 0 0 0 0 -0 0 0 0 0 0 0 0 0 1 1 1 1 1 2 2 1 1 0 0 1 1 1 0 -0 -0 -0 0 1 1 1 1 1 2 2 2 2 1 1 -0 -1 -0 -0 -0 -1 -1 -0 -0 -0 -0 -0 -0 -0 -0 -0 -0 -0 nan
nan 0 0 0 0 0 0 0 0 0 0 -0 0 0 0 0 0 1 1 0 1 1 2 2 1 1 2 2 1 1 0 0 1 2 1 1 -0 -1 -1 0 0 0 1 1 2 2 2 2 2 1 0 -0 -0 -0 -0 -1 -1 -1 -1 -0 -0 -0 -0 -0 -0 -0 -0 -0 nan
nan 0 0 0 0 0 0 0 0 0 0 0 0 0 0 0 0 1 1 1 0 1 1 2 1 1 2 2 1 1 1 1 1 1 2 1 0 -0 -0 -0 -0 -0 0 1 2 2 2 2 2 2 1 -0 -0 -0 -0 -0 -1 -1 -0 -0 -0 -0 -0 -0 -0 -0 -0 -0 nan
nan 0 0 0 0 0 0 0 0 0 0 0 0 0 0 0 0 1 1 1 0 -0 0 1 0 0 0 1 1 1 1 0 0 0 1 2 2 0 -1 -1 -1 -1 0 1 2 2 2 2 2 2 1 0 -0 -0 -0 -0 -0 -0 -0 -0 -0 -0 -0 -0 -0 -0 -1 -0 nan
nan 0 0 0 0 0 0 0 0 0 0 0 0 0 0 -0 0 0 1 1 1 0 0 1 0 -0 0 -0 -0 0 1 1 0 0 0 1 2 1 0 -2 -2 -1 0 1 2 2 2 2 2 2 1 0 0 -0 -0 -0 -0 -0 -0 -0 -1 -1 -1 -0 -0 -0 -0 1 nan
nan 0 0 0 0 0 0 0 0 0 0 0 0 0 0 0 -0 -0 0 1 1 1 1 2 2 1 0 0 0 0 0 0 0 1 1 1 2 2 -0 -2 -2 -1 1 1 1 2 2 2 2 2 1 1 0 -0 -0 -0 -0 0 -0 -1 -1 -1 -1 -1 -0 -0 -0 0 nan
nan 0 0 0 0 0 0 0 0 0 0 0 0 0 0 0 0 0 -0 0 1 1 1 2 2 2 2 1 2 2 1 0 -0 0 1 1 1 1 -1 -2 -2 -1 1 2 2 2 2 2 2 2 1 1 0 0 -0 -0 -0 -0 -0 -0 -1 -1 -1 -1 -1 -0 -0 -0 nan
nan 0 0 0 0 0 0 0 0 0 0 0 0 0 0 0 0 0 0 -0 -0 -0 0 1 1 1 2 2 2 2 2 2 0 -1 -0 1 1 1 -1 -3 -3 -1 1 2 2 2 2 2 2 2 2 1 0 0 -0 -0 -0 -0 -1 -1 -1 -1 -1 -1 -1 -1 -1 -1 nan
nan -0 0 0 0 0 0 0 0 0 0 0 0 0 -0 -0 0 0 1 0 -0 -1 -0 -0 -0 -0 -0 1 1 1 2 2 2 0 -1 -0 1 1 -1 -4 -5 -2 -0 1 2 2 1 1 1 2 2 1 1 0 0 -0 -0 -0 -0 -1 -1 -1 -1 -0 -0 -1 -1 -1 nan
nan 0 0 0 0 0 0 0 0 -0 0 0 0 0 0 0 0 0 1 1 -0 -1 -1 -0 -0 -0 0 -0 -1 -1 1 2 3 2 0 -0 1 2 0 -3 -5 -4 -1 1 2 2 2 1 1 2 2 2 1 1 0 0 -0 -0 -0 -1 -1 -1 -1 -0 -0 -0 -1 -1 nan
nan 0 0 0 0 -0 0 0 0 0 -0 -0 -0 0 0 -0 0 0 1 1 1 -0 -1 -1 -0 1 1 0 -1 -2 -1 1 3 3 2 0 0 1 1 -1 -4 -4 -2 0 1 1 1 1 2 2 2 2 1 1 1 0 -0 -0 -0 -0 -1 -1 -1 -0 0 0 -1 -1 nan
nan nan nan nan nan nan nan nan nan nan nan nan nan nan nan nan nan nan nan nan nan nan nan nan nan nan nan nan nan nan nan nan nan nan nan nan nan nan nan nan nan nan nan nan nan nan nan nan nan nan nan nan nan nan nan nan nan nan nan nan nan nan nan nan nan nan nan nan nan
Wind_Speed
35 34 33 32 31 30 30 30 30 29 29 29 28 28 29 29 29 30 30 31 32 33 34 35 36 36 37 37 37 36 36 35 34 34 34 34 34 34 34 34 34 34 34 35 35 35 36 37 37 38 39 40 40 41 41 41 41 41 41 41 40 40 40 39 39 39 38 38 37
36 35 33 32 31 31 30 30 30 29 29 29 28 28 29 29 29 30 31 32 33 34 35 36 37 37 37 37 36 36 35 35 34 34 34 34 34 34 35 35 35 36 36 36 37 37 37 38 39 40 40 41 42 42 42 42 42 42 42 42 41 40 40 39 39 39 38 38 37
36 35 34 32 31 30 30 30 30 29 29 29 29 29 29 29 30 31 31 32 33 34 35 36 37 37 37 36 36 35 34 34 34 34 35 35 35 35 36 36 36 37 37 38 38 39 39 40 40 41 42 43 43 43 44 43 42 42 42 42 41 40 39 38 38 38 37 36 35
36 35 33 32 31 30 30 29 29 29 29 29 29 29 29 30 30 31 32 33 34 35 36 37 37 37 37 36 35 35 34 34 34 35 35 36 36 36 36 37 37 38 38 39 39 40 41 41 42 43 43 44 45 45 45 44 44 43 42 42 41 40 39 38 38 36 35 34 33
35 34 33 32 31 30 29 29 29 28 29 29 29 29 29 30 31 32 33 34 35 36 36 37 37 37 37 36 35 35 35 35 35 35 36 36 37 37 37 38 38 38 39 40 40 41 42 43 43 44 44 45 45 45 45 44 44 43 42 41 40 38 37 37 36 35 34 33 33
34 33 32 31 30 29 29 29 28 28 28 29 29 29 30 31 31 33 34 35 35 36 37 37 37 37 36 36 35 35 35 35 35 36 36 37 38 38 38 39 39 40 40 41 42 42 43 44 44 44 44 44 44 45 44 43 42 42 41 40 39 38 37 37 36 34 33 33 33
33 32 31 30 29 28 28 28 28 28 28 29 29 29 30 31 32 33 34 35 36 36 37 37 36 36 36 36 36 36 36 36 36 36 37 38 38 39 39 40 41 41 42 42 43 43 44 44 44 44 44 43 43 43 43 41 40 39 39 39 38 37 36 35 35 33 33 34 34
32 31 30 29 28 28 28 28 28 28 29 29 29 29 30 31 32 33 34 35 36 36 36 36 36 36 36 36 36 36 36 37 37 37 38 39 40 40 41 41 42 43 43 43 44 44 44 44 43 43 43 43 42 41 41 39 38 38 38 38 38 37 36 36 37 36 35 35 36
31 30 29 28 28 28 28 28 28 28 29 29 29 30 31 31 32 34 34 35 36 36 36 36 36 36 36 36 36 37 37 37 38 39 39 40 41 42 42 43 44 44 45 45 45 45 45 45 44 43 43 42 41 40 40 39 38 38 39 39 39 39 39 37 37 36 36 36 37
30 29 28 28 27 27 27 28 28 28 28 29 29 30 31 32 33 34 35 35 36 36 36 36 36 36 36 36 36 37 38 38 39 40 41 42 42 43 44 45 45 46 47 47 47 47 46 45 44 44 43 41 41 40 40 39 39 39 40 40 39 39 40 39 38 37 37 38 38
29 28 28 27 27 27 28 28 28 28 29 29 30 31 32 33 33 34 35 36 36 36 36 36 35 36 36 37 37 38 38 39 40 41 42 43 44 45 46 46 47 48 49 49 48 48 46 45 44 43 43 42 40 40 40 39 38 38 38 39 38 39 39 39 38 38 37 38 38
29 28 27 27 27 27 28 28 28 29 29 30 30 31 32 33 34 35 35 36 36 36 36 36 36 36 37 38 38 39 40 40 42 43 44 45 46 46 47 48 49 50 50 49 48 47 45 43 42 41 41 40 40 39 38 38 38 38 38 39 39 39 39 40 39 38 38 38 38
28 27 27 27 27 28 28 28 28 29 29 30 31 32 33 34 35 35 35 35 36 36 36 36 37 37 38 38 39 40 41 42 43 44 45 46 47 48 49 50 50 50 50 49 47 45 43 41 40 40 40 40 40 39 38 38 38 38 39 39 39 39 39 39 39 39 39 39 39
27 27 27 27 28 28 28 28 29 29 30 31 32 33 34 34 35 35 35 35 36 36 36 37 37 38 38 39 40 41 42 43 44 46 47 48 49 50 50 51 50 50 48 47 45 43 41 40 40 39 39 40 40 40 39 39 39 39 39 40 40 40 40 40 40 39 39 39 39
27 27 27 28 28 28 28 28 29 30 31 32 33 34 34 35 35 35 35 35 36 36 36 37 38 38 39 40 41 42 43 44 45 47 48 49 50 50 50 50 50 48 47 45 43 42 40 40 40 40 40 40 40 41 40 40 39 39 40 39 39 40 41 41 40 39 39 39 39
28 28 28 28 28 28 28 29 29 31 32 32 33 34 34 35 35 35 35 35 36 36 37 37 38 39 40 41 41 43 44 45 46 47 48 49 49 50 49 49 48 47 46 44 43 42 41 40 40 40 40 40 41 41 41 41 40 40 40 40 40 40 40 40 39 39 38 39 39
28 28 28 27 27 27 28 29 30 31 32 33 33 34 34 34 35 35 35 35 36 36 37 38 39 40 41 42 43 44 45 46 47 48 48 49 49 49 48 48 48 47 45 44 43 43 42 42 41 40 40 40 40 41 41 41 41 40 40 40 40 39 39 39 38 38 39 39 39
28 27 27 27 27 28 28 29 31 32 32 33 33 34 34 34 34 35 35 36 36 37 38 39 40 41 42 43 44 45 46 47 48 48 48 48 48 48 48 48 47 46 45 44 43 42 42 42 41 41 40 40 40 40 40 40 40 40 40 40 40 39 39 39 38 38 39 39 39
27 27 27 27 27 28 29 30 31 32 32 33 33 34 34 34 35 35 36 36 37 37 39 40 41 42 43 44 46 46 47 47 48 48 48 48 47 47 47 47 46 45 44 43 42 42 42 41 41 40 40 40 40 40 40 40 40 40 40 40 39 39 38 39 39 39 39 39 40
27 27 27 27 28 29 30 31 31 32 32 33 33 34 34 35 35 36 36 37 37 38 39 41 42 43 45 46 47 47 47 47 47 47 47 47 46 46 46 46 45 44 43 43 42 42 41 41 41 40 40 40 40 40 40 40 40 39 39 39 38 38 39 39 39 40 40 40 40
27 27 27 28 29 29 30 31 31 32 32 33 34 34 34 35 35 36 36 37 38 39 41 42 43 45 46 46 47 47 47 47 46 46 46 46 46 45 45 44 44 44 43 43 42 41 41 41 40 40 39 39 39 39 39 39 38 38 38 38 38 39 39 39 39 39 39 40 40
27 27 28 28 29 30 31 31 31 32 33 33 34 34 34 35 35 36 37 38 39 40 42 43 44 45 46 47 47 47 47 47 46 46 46 46 45 45 44 43 43 43 43 43 43 42 42 41 40 38 38 38 38 38 37 37 37 38 39 39 39 39 39 39 40 40 40 40 40
27 27 28 29 30 30 30 31 32 32 33 33 34 34 34 35 36 37 38 39 40 41 43 44 45 45 46 46 46 46 47 47 46 46 45 45 44 44 44 43 43 43 43 43 43 42 41 39 38 37 36 35 36 36 37 37 38 39 39 40 40 40 40 40 41 41 41 42 41
27 28 29 29 30 30 30 31 31 32 32 33 33 34 35 35 36 37 39 40 41 42 44 44 45 45 46 46 46 45 45 45 45 45 45 44 43 43 43 43 42 42 42 42 42 41 39 37 36 36 36 35 36 37 38 38 38 38 39 39 40 41 41 41 41 42 42 42 42
28 28 29 29 29 30 30 31 31 32 32 33 33 34 35 36 37 38 40 41 42 43 44 45 45 45 45 45 45 44 44 43 43 44 44 44 43 43 42 42 41 41 41 41 40 39 37 36 35 35 35 36 36 37 39 39 38 38 39 40 41 42 43 43 43 43 43 43 43
28 28 29 29 29 29 30 30 31 32 32 33 34 35 36 37 38 39 41 42 43 44 44 44 45 45 44 44 44 43 43 42 42 42 43 44 44 44 44 43 42 41 40 40 39 38 37 36 35 34 35 35 36 38 39 40 40 40 41 42 42 43 43 44 43 43 42 42 42
28 28 28 28 29 29 30 31 31 32 33 33 34 36 37 38 39 40 42 42 43 43 44 44 44 43 43 43 42 42 42 42 42 42 42 43 44 44 44 43 42 41 40 40 39 38 37 36 35 34 34 35 36 38 39 40 41 42 42 43 42 42 42 41 41 41 40 39 39
27 27 28 28 28 29 30 31 31 32 33 34 35 36 38 39 40 41 42 42 43 43 43 43 43 42 42 42 42 42 43 43 44 44 43 44 43 43 43 43 42 41 40 40 39 38 37 36 35 35 34 34 35 37 39 40 41 41 40 40 40 40 40 40 40 40 40 40 40
27 27 27 28 28 29 30 31 32 33 34 35 36 37 39 40 40 41 42 42 42 42 42 42 42 42 42 43 43 44 44 45 45 44 43 43 43 43 43 42 42 41 40 40 39 38 37 36 35 35 34 33 34 36 38 39 40 40 39 39 39 39 40 40 40 40 41 42 42
26 26 27 28 29 29 30 31 32 33 34 35 37 38 39 40 41 41 41 41 41 41 42 42 43 43 43 44 45 45 45 45 44 43 43 43 43 43 43 43 43 42 40 40 39 38 37 36 35 34 34 34 34 36 38 39 40 40 41 41 41 41 41 41 41 42 42 42 43
26 26 27 28 29 29 30 31 32 34 35 36 37 38 39 40 40 40 40 41 41 42 42 43 43 44 45 45 45 45 45 45 44 43 42 42 42 43 43 43 42 41 40 39 38 37 36 35 34 34 34 33 34 35 37 39 40 41 41 42 42 42 42 42 42 43 43 43 43
25 26 27 28 29 30 31 32 33 34 35 37 38 39 39 40 40 40 40 40 41 42 43 43 44 45 45 45 45 44 44 44 43 43 43 43 43 43 42 42 41 41 40 39 37 36 35 34 34 34 34 33 34 35 37 38 39 40 41 41 42 42 42 43 43 44 44 44 43
25 26 27 28 29 30 31 32 33 35 36 37 38 39 39 40 40 40 40 40 41 42 43 44 44 44 45 44 44 44 44 43 43 43 43 43 42 42 41 41 41 40 39 37 35 34 34 33 33 33 33 33 34 35 36 37 38 39 39 39 40 41 41 41 42 42 43 43 43
25 26 27 28 29 30 32 33 34 35 36 37 38 38 39 39 39 40 40 40 41 42 43 43 44 44 44 44 44 43 43 43 43 43 43 43 42 42 41 41 40 38 36 35 34 33 33 33 33 33 33 33 33 34 35 35 36 36 37 38 39 39 40 40 40 41 41 42 42
25 26 27 28 30 31 32 33 34 36 36 37 38 38 38 38 39 39 40 41 42 42 43 44 44 44 44 44 43 43 42 42 43 43 43 42 42 41 40 39 38 36 35 34 33 33 33 32 32 32 32 32 32 33 34 34 35 36 37 38 39 39 39 39 40 40 41 41 42
25 27 28 29 30 31 33 34 35 36 37 37 37 38 38 38 38 39 40 41 42 43 43 43 43 43 43 43 42 42 42 42 43 43 42 41 40 39 39 38 37 35 33 33 32 32 32 32 31 31 31 31 32 33 33 34 35 37 38 38 39 39 40 40 40 41 41 42 42
26 27 28 29 31 32 33 34 35 36 36 37 37 37 37 38 39 39 40 41 42 43 43 43 43 43 43 42 42 43 43 43 42 42 41 40 39 38 38 37 36 34 33 32 31 31 30 30 30 30 30 30 31 33 34 35 36 37 38 39 40 40 40 41 41 41 42 43 43
26 27 28 30 31 32 33 34 35 35 36 36 36 37 37 38 39 39 40 41 42 43 43 43 43 43 43 43 43 43 43 43 41 40 39 38 37 37 37 37 36 34 32 31 30 30 29 29 28 28 28 29 31 32 34 35 37 38 39 40 40 41 41 41 42 42 43 44 45
26 27 29 30 31 32 33 34 35 35 36 36 36 36 37 37 38 39 40 41 41 42 42 43 42 42 42 42 43 43 42 41 40 38 38 37 36 35 35 36 36 34 32 30 29 29 28 28 27 26 26 28 29 32 34 36 38 39 40 41 41 41 42 42 42 43 44 46 46
26 28 29 30 31 32 33 34 34 35 35 35 36 36 37 37 38 39 40 40 41 41 41 42 42 42 41 41 41 41 41 40 39 37 36 36 35 34 34 35 35 34 32 30 29 28 27 27 26 26 26 27 29 31 34 36 38 40 40 41 41 42 42 43 43 44 45 47 47
27 28 29 30 31 32 33 34 34 34 34 35 35 36 36 37 38 39 39 40 40 40 40 41 41 41 40 40 40 40 40 39 38 36 35 34 34 34 33 34 34 33 31 29 28 27 27 26 26 26 26 27 29 31 34 36 38 39 40 41 42 42 43 44 45 45 46 47 48
Wind_Direction
260 261 262 264 265 266 268 270 272 275 277 279 281 283 286 289 292 295 299 302 304 306 308 310 311 313 314 315 315 315 315 314 314 313 312 312 311 311 311 310 310 310 310 310 310 310 310 310 309 308 306 305 304 304 303 302 302 302 301 300 299 298 297 295 294 293 292 291 288
258 259 261 262 263 265 267 269 271 274 276 279 281 283 286 290 293 297 300 303 305 307 308 310 311 312 313 314 314 314 314 313 313 312 312 312 311 311 311 311 311 310 310 310 310 310 309 309 308 306 305 303 303 302 302 301 301 301 300 299 298 297 295 294 292 292 291 289 287
257 258 259 260 262 264 266 268 270 273 276 279 281 285 288 291 295 298 301 303 305 307 308 310 311 312 313 313 313 313 313 313 312 312 312 311 311 312 311 311 311 311 311 311 310 310 309 308 306 305 303 302 301 301 300 300 299 299 298 297 296 294 293 291 290 290 288 286 284
255 256 257 258 260 262 264 267 270 273 276 279 283 286 289 293 296 299 301 303 305 307 308 310 311 311 312 313 313 313 312 312 311 311 311 311 311 311 311 310 310 310 310 310 309 308 307 306 305 303 302 301 300 300 299 299 299 298 297 296 294 293 291 289 288 287 285 283 281
253 254 256 257 259 261 264 267 270 274 277 280 284 287 290 294 297 299 301 303 305 307 308 309 310 311 312 312 312 312 312 311 311 311 311 311 311 310 310 309 309 309 308 308 307 307 306 304 303 302 301 300 300 299 299 299 299 298 296 295 293 291 289 288 286 284 282 280 279
251 253 255 256 259 261 265 268 271 275 278 281 284 288 291 295 298 300 303 305 306 307 308 309 310 311 311 311 311 311 311 311 311 311 311 310 310 309 309 309 308 308 307 307 306 305 304 304 303 301 300 300 299 299 299 298 298 296 295 293 291 289 287 286 284 281 279 278 276
250 252 254 256 259 262 266 270 273 276 279 282 285 288 292 295 298 301 303 305 306 307 308 309 310 310 311 311 311 311 311 310 310 310 309 309 309 308 308 308 308 307 306 306 305 304 304 303 302 301 300 299 298 298 298 297 296 294 292 291 289 287 284 283 281 279 277 276 275
249 251 253 257 260 264 268 271 274 277 280 283 286 289 293 296 299 301 303 304 306 307 308 309 309 310 310 310 310 310 310 310 309 309 309 308 308 308 307 307 306 306 305 305 304 304 303 302 300 299 299 298 297 296 296 295 293 291 289 287 287 285 283 281 280 278 276 275 275
249 251 254 258 262 266 270 273 275 278 281 284 287 291 294 297 299 301 303 305 306 307 308 309 309 310 310 309 309 309 309 309 309 309 308 308 307 307 306 306 305 305 304 304 303 303 302 301 300 299 298 297 295 295 294 292 290 288 287 285 284 284 282 280 279 278 276 275 274
249 252 256 260 264 268 271 274 277 279 282 285 289 292 295 297 300 302 304 305 306 307 308 308 309 309 309 309 309 309 309 309 309 308 308 307 307 306 306 305 305 304 303 303 303 303 302 301 300 299 298 297 295 294 293 292 289 287 286 285 284 283 282 281 279 277 276 276 274
251 254 258 262 265 269 272 275 278 280 284 287 290 293 296 298 301 302 304 305 306 307 307 308 308 308 308 308 309 309 309 309 308 308 307 307 306 306 305 304 304 303 303 303 303 303 303 302 301 300 299 297 295 294 293 291 289 287 285 284 282 282 281 280 279 278 277 276 275
252 256 260 263 267 270 273 275 278 282 285 289 292 295 297 299 301 303 304 305 306 307 307 308 308 308 308 309 309 309 309 308 308 307 306 306 305 305 304 304 304 304 304 304 304 304 303 302 300 299 298 297 295 292 291 289 288 286 284 283 282 281 280 280 279 278 277 276 276
255 258 262 265 268 270 273 276 280 284 287 291 293 296 298 300 302 304 305 306 307 307 308 308 308 309 309 309 309 309 308 307 307 306 305 305 304 304 304 304 304 304 305 305 305 304 303 301 299 298 296 296 294 291 289 288 286 285 284 283 282 281 279 279 279 278 277 277 276
257 260 263 266 269 271 275 278 282 286 289 293 295 297 299 301 303 305 306 307 307 308 308 309 309 309 309 309 308 308 307 306 305 305 304 304 304 304 304 305 305 306 306 306 305 303 301 300 298 296 295 294 293 291 290 288 286 285 283 283 282 281 280 279 279 278 277 277 276
259 262 264 267 270 273 277 281 285 289 292 295 297 299 301 303 304 306 307 307 308 308 308 308 308 308 308 308 307 306 306 305 305 304 304 304 304 305 305 306 306 306 306 306 304 302 300 299 298 296 295 293 292 291 290 288 286 285 283 282 281 281 281 280 279 278 277 276 275
260 263 266 269 272 276 280 285 288 292 294 297 299 301 303 304 305 306 307 308 308 308 308 308 307 307 306 306 305 305 305 304 304 304 304 304 305 305 306 306 306 306 306 305 304 302 301 299 298 296 295 293 292 291 290 289 287 285 284 283 282 281 280 280 279 278 277 276 275
261 265 268 271 275 280 284 288 291 294 296 298 300 302 304 305 306 307 307 307 307 307 307 306 306 305 305 304 304 304 304 304 304 304 304 305 305 306 306 306 307 306 306 305 304 302 301 301 299 297 295 293 292 291 290 289 287 286 284 283 282 281 280 279 278 277 277 276 275
263 267 270 274 279 283 287 291 293 296 298 300 302 303 304 305 306 306 307 306 306 306 305 305 304 304 304 304 304 304 304 304 304 305 305 305 306 306 307 307 307 307 306 305 303 302 301 300 299 297 295 293 291 290 289 288 287 286 285 283 282 281 280 279 278 277 277 276 276
266 270 274 278 282 286 290 293 295 297 299 301 303 304 305 306 306 306 306 305 305 305 304 304 304 303 304 304 304 304 304 305 305 306 306 307 307 307 308 308 308 307 306 304 303 302 301 299 298 296 294 292 291 290 289 287 286 286 285 284 283 281 280 279 279 278 277 277 277
268 272 277 281 285 289 292 294 296 298 300 302 303 304 305 305 305 305 305 304 304 304 303 303 303 304 304 304 305 305 306 306 307 307 307 308 308 308 308 308 307 307 305 304 302 301 299 298 297 295 294 292 291 290 289 288 287 286 285 284 283 282 281 281 281 280 279 279 279
270 275 280 284 287 290 293 295 297 299 301 303 304 304 305 304 304 304 303 303 303 303 303 303 304 304 305 305 306 307 307 307 308 308 308 309 309 308 308 308 307 306 305 303 302 300 299 298 296 295 294 292 292 291 290 289 287 286 285 285 284 284 283 283 282 282 281 280 280
273 277 282 286 289 291 293 296 298 300 302 303 303 303 303 303 303 303 302 303 303 303 304 304 305 305 306 307 308 308 309 309 309 309 309 309 309 309 308 307 306 305 304 302 301 300 299 298 297 295 294 293 292 291 290 289 288 288 288 287 286 286 286 285 285 285 284 283 282
276 280 284 287 289 292 295 297 299 301 302 303 302 302 302 302 302 302 302 303 303 304 305 305 306 307 308 308 309 310 310 310 311 311 310 310 309 309 308 306 304 303 302 301 301 300 298 297 296 295 294 292 292 291 291 290 290 290 290 289 289 288 287 286 286 285 285 285 283
278 282 285 288 291 293 296 298 300 301 301 301 301 301 301 301 301 302 303 303 304 305 306 307 308 309 309 310 310 311 311 311 311 311 311 309 308 307 306 305 303 301 300 300 300 299 297 296 295 294 294 293 292 291 291 291 290 290 289 289 289 288 288 287 286 285 285 284 283
280 283 286 289 292 295 297 299 300 300 300 300 300 300 300 301 302 303 304 305 306 307 308 309 310 310 311 311 311 311 311 311 310 310 309 308 307 306 304 302 301 300 299 299 299 298 297 295 294 293 292 292 292 291 291 290 290 289 289 288 288 288 288 287 286 285 284 284 283
282 285 288 291 294 297 299 299 300 299 299 299 300 300 301 302 303 304 306 307 308 309 310 310 311 311 312 312 312 312 311 310 309 308 307 307 306 305 304 303 302 300 300 299 300 299 298 296 293 292 291 291 291 291 290 290 290 289 289 289 289 288 287 287 287 286 285 284 284
283 286 289 293 295 297 298 299 299 299 299 299 300 301 302 304 305 306 307 309 310 310 311 312 312 312 312 312 312 311 310 309 308 307 306 306 306 306 305 305 303 302 301 301 301 300 298 296 295 293 291 291 290 291 290 290 290 290 290 290 289 288 287 287 287 287 286 285 284
284 288 291 294 296 297 298 298 298 298 299 300 301 303 304 306 307 308 309 310 311 311 312 312 312 312 312 311 311 310 309 309 308 307 306 306 306 306 306 305 304 303 302 302 301 300 298 296 295 293 292 291 291 291 291 291 291 290 290 289 288 287 287 286 286 286 286 285 284
286 290 293 295 296 297 297 297 298 299 300 302 303 304 306 307 308 309 310 311 312 312 312 313 312 312 312 311 310 310 309 309 309 308 308 307 307 306 306 305 304 303 302 302 301 299 298 297 296 294 293 292 292 291 291 290 290 290 289 288 288 287 286 286 285 285 285 284 283
288 291 294 295 296 296 297 297 299 300 302 303 305 306 307 308 309 310 311 311 312 312 312 312 312 312 311 311 311 310 310 310 309 308 308 307 307 306 306 306 305 304 303 302 301 300 299 298 297 296 294 293 292 291 291 290 290 289 289 288 287 287 286 286 285 284 284 283 283
290 292 294 295 295 296 297 298 300 301 303 305 306 307 308 309 310 310 311 311 312 312 312 313 312 312 312 311 311 310 310 310 310 309 308 307 306 306 306 306 304 303 302 302 301 301 300 300 299 298 296 295 294 292 291 291 290 289 288 287 287 286 286 285 285 284 284 283 283
291 293 294 294 295 296 298 300 301 303 305 306 307 308 308 309 310 310 311 311 312 312 313 313 312 312 312 311 311 310 310 310 309 309 308 307 307 306 305 304 303 302 303 303 303 304 303 303 302 300 298 297 295 294 292 291 291 289 288 287 286 286 285 285 285 285 284 284 283
291 293 293 294 296 297 299 301 303 304 306 307 307 308 308 309 310 310 311 312 312 312 312 312 312 312 311 311 311 310 310 310 309 309 308 307 306 305 304 303 303 304 305 306 307 307 306 305 304 302 300 298 297 295 293 292 291 290 289 288 287 287 287 287 287 287 287 287 287
291 292 293 295 297 299 301 302 304 305 306 307 307 308 309 309 310 311 312 312 312 312 312 312 311 311 311 311 311 310 310 309 309 308 308 307 306 305 304 305 306 307 308 309 309 308 307 306 304 303 301 300 298 296 294 293 291 290 289 289 289 290 290 291 291 291 291 291 291
291 292 294 296 298 300 302 303 305 305 306 307 307 308 309 310 310 311 312 312 312 312 312 312 312 311 311 311 311 310 309 309 308 308 308 307 307 307 306 306 308 309 310 310 309 309 308 307 306 305 304 302 300 297 296 294 293 292 292 292 293 294 295 295 295 295 294 294 292
291 293 295 297 299 301 303 304 305 306 306 307 307 308 309 310 311 311 312 312 312 312 312 312 312 312 311 311 311 310 309 308 308 308 309 309 309 308 308 308 309 310 310 310 310 309 309 308 308 307 305 303 301 299 298 297 296 296 296 296 296 296 297 298 297 297 296 295 295
292 294 296 298 300 302 303 304 305 306 306 307 308 309 309 310 311 311 312 312 312 312 312 312 312 312 311 311 310 309 309 309 309 309 310 310 310 309 308 308 309 310 311 311 311 311 311 310 310 309 307 305 302 301 300 299 299 298 298 298 298 299 299 299 298 298 297 297 297
293 296 298 300 301 303 304 305 305 306 307 307 308 309 310 310 311 311 312 312 312 312 312 312 312 312 312 311 310 310 310 310 310 310 311 311 311 310 309 308 309 310 312 312 313 314 314 313 312 311 309 307 305 303 302 301 300 300 300 299 299 300 300 300 299 298 298 298 298
295 297 299 301 302 303 304 305 306 307 307 308 309 309 310 311 311 311 312 312 312 312 312 312 312 312 311 311 310 310 310 311 311 311 311 311 310 310 309 308 308 310 312 313 315 316 316 316 315 314 312 310 307 305 304 302 301 301 300 300 300 300 300 300 299 298 298 299 299
296 298 300 302 303 304 305 306 306 307 308 308 309 310 310 311 311 312 312 312 312 312 311 311 311 311 311 311 310 310 311 311 312 312 311 311 311 310 308 307 308 309 312 314 317 319 320 320 318 317 316 313 310 308 306 304 302 300 300 300 299 299 299 300 299 298 298 298 299
298 299 301 303 304 305 306 306 307 307 308 309 309 310 310 311 311 312 312 312 312 311 311 311 311 311 311 310 310 311 311 312 312 312 312 311 310 309 308 308 308 310 313 316 319 321 323 323 322 321 319 316 312 309 306 304 301 299 299 300 300 299 299 300 300 300 299 299 299
Height
1516 1516 1516 1516 1516 1516 1516 1515 1515 1515 1515 1514 1514 1513 1513 1512 1512 1511 1510 1509 1508 1508 1507 1506 1505 1505 1504 1503 1502 1500 1499 1498 1497 1496 1495 1494 1493 1492 1491 1490 1489 1488 1487 1485 1484 1483 1482 1480 1479 1478 1476 1474 1473 1472 1471 1470 1470 1469 1468 1467 1466 1465 1464 1463 1461 1460 1460 1459 1458
1514 1514 1514 1514 1514 1514 1514 1514 1513 1513 1513 1512 1512 1511 1511 1510 1510 1509 1508 1507 1506 1505 1505 1504 1503 1502 1501 1500 1499 1498 1497 1495 1494 1493 1492 1491 1490 1489 1487 1486 1485 1484 1483 1482 1481 1480 1479 1478 1477 1475 1474 1472 1471 1470 1469 1468 1467 1466 1465 1464 1463 1462 1460 1459 1458 1457 1456 1455 1455
1512 1512 1512 1512 1512 1512 1512 1512 1511 1511 1511 1510 1510 1510 1509 1508 1507 1507 1506 1505 1504 1503 1502 1501 1500 1500 1499 1498 1496 1495 1494 1493 1491 1490 1489 1488 1487 1486 1485 1484 1482 1481 1480 1479 1478 1477 1476 1475 1474 1473 1471 1470 1469 1467 1466 1465 1465 1464 1462 1461 1460 1459 1457 1456 1455 1454 1453 1452 1451
1510 1510 1510 1510 1510 1510 1510 1510 1510 1510 1509 1509 1508 1508 1507 1506 1505 1505 1504 1503 1502 1501 1500 1499 1498 1497 1496 1495 1494 1493 1491 1490 1489 1488 1486 1485 1484 1483 1482 1481 1480 1479 1478 1477 1476 1475 1474 1472 1471 1470 1468 1467 1465 1465 1463 1462 1462 1461 1460 1458 1457 1456 1455 1453 1452 1451 1450 1449 1448
1509 1509 1509 1509 1509 1509 1508 1508 1508 1508 1507 1507 1506 1506 1505 1504 1503 1502 1501 1500 1500 1499 1498 1497 1495 1494 1493 1492 1491 1490 1489 1487 1486 1485 1483 1482 1481 1480 1480 1479 1478 1477 1476 1475 1474 1472 1471 1470 1468 1466 1465 1464 1462 1461 1460 1459 1458 1457 1456 1455 1454 1452 1451 1450 1449 1448 1447 1446 1445
1506 1507 1507 1507 1507 1507 1506 1506 1506 1506 1505 1505 1505 1504 1503 1502 1501 1500 1499 1498 1497 1496 1495 1494 1493 1491 1490 1489 1488 1487 1486 1485 1483 1482 1481 1480 1479 1478 1477 1476 1475 1474 1473 1472 1471 1470 1468 1467 1465 1463 1461 1460 1459 1457 1456 1456 1455 1453 1452 1451 1450 1449 1448 1446 1445 1445 1444 1442 1441
1505 1505 1505 1505 1505 1505 1505 1505 1504 1504 1504 1503 1503 1502 1501 1500 1499 1498 1497 1496 1495 1494 1493 1492 1490 1489 1488 1487 1485 1484 1483 1482 1481 1480 1478 1477 1476 1475 1474 1473 1472 1471 1470 1470 1468 1467 1465 1464 1462 1460 1458 1457 1456 1454 1453 1452 1451 1450 1448 1447 1446 1445 1444 1443 1442 1441 1440 1439 1438
1503 1503 1503 1503 1503 1503 1503 1503 1502 1502 1501 1501 1500 1500 1499 1498 1497 1496 1495 1494 1493 1491 1490 1489 1488 1487 1485 1484 1483 1481 1480 1479 1478 1477 1476 1475 1474 1473 1472 1471 1470 1469 1468 1467 1465 1464 1463 1461 1460 1458 1456 1454 1453 1451 1450 1449 1448 1446 1445 1443 1442 1441 1440 1439 1438 1437 1436 1435 1434
1501 1501 1501 1501 1501 1501 1501 1501 1500 1500 1500 1499 1498 1498 1497 1496 1495 1494 1493 1491 1490 1489 1488 1486 1485 1484 1483 1481 1480 1479 1477 1476 1475 1474 1473 1472 1471 1470 1469 1468 1467 1466 1465 1464 1463 1461 1460 1458 1456 1454 1453 1451 1450 1448 1447 1446 1445 1443 1441 1440 1439 1437 1436 1435 1435 1434 1432 1431 1430
1499 1500 1500 1500 1500 1500 1499 1499 1498 1498 1497 1497 1496 1495 1495 1494 1493 1492 1490 1489 1488 1486 1485 1484 1483 1481 1480 1479 1478 1476 1475 1474 1472 1471 1470 1469 1468 1467 1466 1465 1464 1463 1462 1460 1460 1458 1456 1455 1453 1451 1449 1448 1446 1445 1443 1442 1441 1440 1437 1436 1435 1433 1432 1431 1431 1430 1429 1427 1426
1498 1498 1498 1498 1498 1498 1497 1497 1496 1495 1495 1495 1494 1493 1492 1491 1490 1489 1488 1487 1485 1484 1483 1482 1480 1479 1478 1476 1475 1474 1472 1471 1470 1468 1467 1466 1465 1464 1463 1462 1461 1460 1458 1457 1456 1454 1452 1450 1449 1447 1445 1444 1443 1441 1439 1438 1437 1436 1434 1432 1431 1430 1428 1427 1427 1426 1425 1424 1423
1496 1496 1496 1496 1496 1496 1495 1495 1494 1493 1493 1492 1491 1491 1490 1489 1488 1487 1485 1484 1483 1481 1480 1479 1478 1476 1475 1474 1472 1471 1470 1469 1467 1466 1465 1463 1462 1461 1460 1459 1457 1456 1455 1453 1452 1450 1448 1446 1445 1443 1441 1440 1439 1438 1436 1435 1434 1432 1430 1429 1428 1427 1425 1423 1423 1423 1422 1421 1420
1495 1495 1495 1494 1494 1494 1493 1493 1492 1491 1491 1490 1489 1488 1488 1486 1485 1484 1483 1481 1480 1479 1477 1476 1475 1474 1472 1471 1470 1469 1467 1466 1465 1464 1462 1461 1460 1458 1457 1455 1454 1453 1451 1449 1448 1446 1445 1443 1441 1440 1438 1436 1435 1434 1433 1431 1430 1429 1427 1425 1424 1423 1422 1420 1419 1419 1418 1417 1416
1493 1493 1493 1492 1492 1492 1491 1490 1490 1489 1489 1488 1487 1486 1485 1484 1483 1481 1480 1479 1477 1476 1475 1474 1472 1471 1470 1469 1467 1466 1465 1464 1462 1461 1460 1458 1456 1455 1454 1452 1450 1449 1447 1445 1444 1443 1441 1439 1438 1436 1435 1433 1431 1430 1429 1428 1427 1425 1424 1422 1420 1419 1418 1416 1416 1415 1414 1413 1412
1491 1491 1491 1490 1490 1490 1489 1488 1488 1487 1486 1485 1485 1484 1482 1481 1480 1479 1478 1476 1475 1474 1472 1471 1470 1469 1468 1466 1465 1464 1463 1461 1460 1458 1456 1455 1453 1452 1450 1448 1447 1445 1444 1442 1440 1439 1438 1436 1435 1433 1431 1430 1428 1426 1425 1424 1423 1421 1420 1418 1417 1415 1414 1413 1412 1411 1410 1409 1408
1489 1489 1489 1488 1488 1487 1487 1486 1485 1485 1484 1483 1482 1481 1480 1479 1477 1476 1475 1474 1472 1471 1470 1469 1468 1466 1465 1464 1463 1462 1460 1459 1457 1455 1454 1452 1450 1449 1447 1445 1443 1442 1440 1439 1437 1435 1434 1433 1431 1430 1428 1426 1424 1423 1421 1420 1419 1417 1416 1414 1413 1412 1410 1409 1409 1408 1407 1405 1405
1487 1487 1486 1486 1486 1485 1485 1484 1483 1483 1482 1481 1480 1479 1478 1476 1475 1474 1473 1471 1470 1469 1468 1467 1466 1465 1463 1462 1461 1460 1458 1456 1454 1453 1451 1449 1447 1445 1443 1441 1440 1438 1436 1435 1433 1431 1430 1429 1427 1426 1425 1423 1421 1419 1418 1416 1415 1413 1412 1410 1409 1408 1407 1406 1405 1404 1403 1402 1401
1485 1485 1485 1484 1484 1483 1483 1482 1481 1480 1480 1479 1477 1476 1475 1474 1473 1471 1470 1469 1468 1467 1465 1464 1463 1462 1461 1459 1458 1457 1455 1453 1451 1450 1448 1446 1444 1442 1440 1438 1436 1435 1433 1431 1430 1428 1426 1425 1424 1422 1421 1419 1417 1416 1414 1413 1411 1409 1408 1407 1405 1404 1403 1402 1401 1400 1399 1398 1397
1483 1483 1482 1482 1482 1481 1480 1480 1479 1478 1477 1476 1475 1474 1473 1471 1470 1469 1468 1467 1466 1465 1463 1462 1461 1460 1458 1457 1455 1454 1452 1450 1448 1446 1444 1442 1440 1438 1436 1434 1432 1431 1430 1428 1426 1425 1423 1422 1420 1419 1418 1416 1414 1412 1410 1409 1407 1406 1404 1403 1402 1400 1399 1398 1397 1396 1395 1394 1393
1481 1481 1480 1480 1480 1479 1478 1478 1477 1476 1475 1474 1473 1471 1470 1469 1468 1467 1466 1465 1464 1463 1461 1460 1458 1457 1455 1454 1452 1450 1449 1447 1445 1442 1440 1438 1436 1435 1433 1431 1429 1427 1426 1425 1423 1421 1420 1419 1417 1415 1414 1412 1410 1409 1407 1405 1404 1402 1401 1400 1398 1397 1395 1395 1393 1392 1391 1390 1389
1479 1479 1478 1478 1477 1477 1476 1475 1475 1474 1473 1471 1470 1469 1468 1467 1466 1465 1464 1463 1461 1460 1459 1457 1455 1454 1452 1450 1449 1447 1445 1443 1441 1439 1437 1435 1433 1431 1429 1428 1426 1424 1422 1421 1420 1418 1417 1415 1414 1412 1410 1409 1407 1405 1403 1402 1400 1399 1397 1396 1395 1393 1392 1391 1390 1389 1388 1387 1385
1477 1477 1476 1476 1475 1475 1474 1473 1472 1471 1470 1469 1468 1467 1466 1465 1464 1463 1462 1460 1459 1458 1456 1455 1453 1451 1449 1447 1445 1443 1441 1439 1437 1435 1433 1431 1430 1428 1426 1425 1423 1421 1419 1418 1416 1415 1413 1412 1410 1409 1407 1405 1404 1402 1400 1399 1397 1395 1394 1392 1391 1390 1389 1387 1386 1385 1384 1383 1382
1475 1475 1474 1474 1473 1472 1472 1471 1470 1469 1468 1467 1466 1465 1464 1463 1462 1461 1460 1458 1457 1455 1453 1452 1450 1448 1446 1444 1442 1440 1438 1435 1433 1432 1430 1428 1426 1425 1423 1421 1420 1418 1416 1415 1413 1412 1410 1409 1407 1406 1405 1403 1401 1399 1397 1396 1394 1393 1391 1389 1388 1386 1385 1384 1383 1382 1381 1380 1379
1473 1472 1472 1471 1471 1470 1470 1469 1468 1467 1466 1465 1464 1463 1462 1461 1460 1458 1457 1455 1454 1452 1450 1448 1446 1445 1442 1440 1438 1436 1434 1432 1430 1428 1426 1425 1424 1422 1420 1419 1417 1415 1413 1412 1410 1409 1408 1406 1405 1403 1401 1400 1398 1396 1394 1393 1391 1390 1389 1387 1385 1383 1382 1380 1380 1379 1378 1376 1375
1471 1470 1470 1469 1469 1468 1467 1466 1465 1465 1464 1463 1462 1460 1460 1458 1457 1456 1454 1452 1451 1449 1447 1445 1443 1441 1439 1437 1435 1433 1431 1430 1428 1425 1424 1422 1421 1419 1418 1416 1414 1412 1410 1409 1407 1406 1405 1404 1403 1401 1399 1397 1395 1394 1392 1390 1389 1388 1386 1384 1382 1380 1379 1377 1376 1375 1374 1373 1371
1469 1468 1468 1467 1466 1466 1465 1464 1463 1462 1461 1460 1459 1458 1457 1456 1454 1453 1451 1449 1448 1446 1444 1442 1440 1438 1435 1434 1432 1430 1428 1427 1425 1423 1421 1419 1417 1416 1415 1413 1411 1409 1407 1405 1404 1403 1402 1401 1400 1399 1397 1395 1393 1391 1389 1387 1385 1385 1383 1381 1380 1378 1375 1373 1372 1370 1370 1369 1367
1467 1466 1465 1465 1464 1463 1463 1462 1461 1460 1459 1458 1457 1455 1454 1453 1451 1450 1448 1446 1444 1442 1440 1439 1436 1435 1433 1431 1429 1427 1426 1424 1422 1420 1419 1417 1415 1413 1411 1409 1407 1406 1404 1402 1401 1400 1399 1398 1397 1396 1395 1393 1391 1389 1386 1384 1382 1381 1380 1378 1376 1375 1373 1370 1369 1367 1366 1365 1364
1465 1464 1463 1463 1462 1461 1460 1460 1459 1457 1456 1455 1454 1453 1451 1450 1448 1447 1445 1443 1441 1440 1437 1435 1434 1432 1430 1428 1426 1425 1423 1421 1420 1418 1415 1414 1411 1410 1408 1406 1404 1402 1401 1399 1398 1397 1395 1394 1393 1393 1392 1390 1389 1386 1384 1382 1380 1378 1377 1375 1373 1371 1370 1368 1366 1364 1363 1361 1360
1462 1462 1461 1460 1460 1459 1458 1457 1456 1455 1454 1453 1451 1450 1448 1447 1445 1444 1442 1440 1438 1436 1435 1433 1431 1429 1428 1425 1424 1422 1420 1418 1416 1415 1412 1410 1408 1406 1405 1403 1401 1399 1398 1396 1395 1394 1392 1391 1390 1389 1388 1388 1386 1384 1381 1379 1377 1375 1374 1372 1370 1368 1366 1365 1363 1361 1360 1358 1356
1460 1459 1459 1458 1457 1457 1456 1455 1454 1452 1451 1450 1449 1447 1445 1444 1442 1441 1439 1437 1435 1434 1432 1430 1428 1426 1425 1423 1421 1419 1417 1415 1413 1412 1410 1407 1405 1403 1401 1400 1398 1396 1394 1393 1392 1390 1389 1388 1387 1386 1385 1384 1383 1381 1379 1377 1375 1373 1370 1369 1367 1365 1363 1361 1360 1358 1356 1355 1353
1458 1457 1456 1456 1455 1454 1453 1452 1451 1450 1449 1447 1446 1444 1443 1441 1440 1438 1436 1435 1433 1431 1429 1428 1426 1424 1422 1420 1418 1416 1414 1412 1410 1408 1406 1405 1402 1400 1398 1396 1395 1393 1391 1390 1388 1387 1386 1385 1384 1382 1381 1381 1380 1378 1376 1374 1371 1370 1367 1365 1363 1361 1360 1358 1356 1354 1352 1351 1349
1455 1455 1454 1453 1453 1452 1451 1450 1449 1447 1446 1445 1443 1441 1440 1438 1437 1435 1434 1432 1430 1428 1426 1425 1423 1420 1419 1417 1415 1413 1411 1409 1407 1405 1403 1401 1399 1397 1395 1393 1391 1390 1388 1386 1385 1384 1383 1381 1380 1379 1378 1377 1376 1375 1373 1370 1368 1366 1364 1362 1360 1358 1356 1355 1353 1350 1349 1347 1346
1453 1452 1452 1451 1450 1449 1448 1447 1446 1445 1443 1442 1440 1439 1437 1435 1434 1433 1431 1429 1427 1425 1423 1421 1420 1417 1415 1414 1412 1410 1408 1406 1404 1402 1400 1398 1396 1394 1392 1390 1388 1386 1385 1383 1382 1381 1380 1378 1377 1376 1375 1374 1373 1371 1369 1367 1365 1363 1360 1358 1356 1355 1353 1351 1349 1347 1345 1343 1341
1451 1450 1450 1449 1448 1447 1445 1445 1443 1442 1440 1439 1438 1436 1435 1433 1431 1430 1428 1426 1425 1423 1421 1419 1417 1415 1413 1411 1409 1407 1405 1403 1401 1399 1397 1395 1393 1391 1389 1386 1384 1383 1382 1380 1379 1378 1377 1375 1375 1373 1372 1371 1370 1368 1366 1364 1362 1360 1357 1355 1353 1351 1349 1347 1345 1343 1341 1339 1338
1449 1448 1447 1446 1445 1444 1443 1442 1441 1439 1438 1436 1435 1433 1432 1430 1429 1427 1425 1424 1422 1420 1418 1416 1414 1412 1410 1408 1406 1404 1402 1400 1398 1396 1394 1392 1390 1388 1385 1383 1381 1380 1379 1378 1377 1375 1374 1373 1372 1370 1369 1368 1367 1365 1363 1360 1359 1356 1354 1352 1350 1347 1345 1344 1342 1340 1338 1336 1334
1446 1446 1445 1444 1443 1442 1441 1440 1438 1437 1435 1434 1432 1431 1429 1428 1426 1424 1423 1421 1419 1417 1415 1413 1411 1409 1407 1405 1403 1401 1400 1397 1395 1393 1391 1389 1387 1385 1382 1380 1379 1378 1377 1376 1375 1373 1372 1370 1369 1368 1367 1365 1364 1362 1360 1358 1355 1353 1350 1349 1346 1344 1342 1340 1338 1336 1334 1332 1330
1444 1443 1442 1441 1440 1439 1438 1437 1435 1434 1433 1431 1430 1428 1426 1425 1423 1421 1420 1418 1416 1414 1412 1410 1408 1406 1404 1402 1400 1398 1396 1395 1392 1390 1388 1386 1384 1382 1380 1377 1376 1375 1374 1373 1372 1370 1369 1368 1366 1365 1364 1363 1361 1359 1357 1355 1352 1350 1347 1345 1343 1340 1338 1336 1335 1332 1330 1328 1326
1442 1441 1440 1439 1438 1437 1436 1435 1433 1431 1430 1428 1427 1425 1424 1422 1420 1419 1417 1415 1413 1411 1409 1407 1405 1403 1401 1399 1397 1395 1393 1392 1390 1387 1385 1383 1381 1380 1378 1375 1373 1372 1371 1371 1370 1368 1367 1365 1364 1363 1362 1360 1359 1356 1354 1352 1350 1347 1345 1342 1340 1337 1335 1333 1331 1329 1326 1324 1322
1440 1439 1438 1437 1435 1434 1433 1432 1430 1429 1427 1426 1424 1423 1421 1420 1418 1416 1415 1413 1411 1408 1406 1404 1402 1400 1399 1396 1394 1392 1390 1389 1387 1385 1383 1380 1379 1378 1376 1373 1371 1370 1369 1368 1367 1366 1365 1363 1362 1360 1359 1358 1356 1354 1352 1350 1347 1344 1342 1339 1337 1334 1332 1330 1328 1325 1322 1320 1318
1438 1437 1436 1435 1433 1432 1430 1429 1428 1426 1425 1423 1421 1420 1419 1417 1415 1414 1412 1410 1408 1406 1404 1401 1399 1398 1396 1394 1392 1389 1387 1385 1384 1383 1381 1379 1377 1375 1374 1372 1370 1368 1367 1366 1365 1364 1362 1360 1359 1358 1357 1355 1354 1352 1350 1347 1345 1342 1339 1337 1334 1331 1329 1326 1324 1322 1319 1316 1314
1435 1435 1433 1432 1431 1430 1428 1426 1425 1424 1422 1421 1419 1418 1416 1415 1413 1411 1409 1407 1405 1403 1401 1399 1397 1395 1393 1392 1389 1387 1384 1382 1381 1380 1379 1377 1375 1373 1372 1370 1368 1366 1365 1364 1362 1361 1360 1358 1356 1355 1354 1353 1351 1350 1348 1345 1343 1340 1337 1334 1332 1329 1326 1323 1321 1318 1316 1313 1310